Weather in Benidorm

Spain     38°32′39″N   0°07′57″E
temp.,
°C
wind,
m/s
gust,
m/s
humid.,
%
clouds,
%
prec.,
mm/h
press.,
hPa
HPBL,
m
14 april, wed
wed1423:00+13ene3366100 0.0 1023442
02:00+13ne2267100 0.0 1022458
05:00+13ne3366100 0.0 1020308
08:00+14ene5567100 0.0 1020489
11:00+14e4466100 0.0 1020703
14:00+14e5569100 0.0 1020629
17:00+14ese5672100 0.0 1018609
20:00+14ene5671100 0.0 1018706
15 april, thu
thu1523:00+14ne5673100 0.0 1019707
02:00+13ne677595 0.0 1018657
05:00+12nne5774100 0.0 1017505
08:00+13ne5674100 0.0 1016518
11:00+13ne7980100 0.6 1017782
14:00+13ene101184100 2.6 1015875
17:00+13ne7874100 3.0 1015780
20:00+13ne6869100 3.7 1015827
16 april, fri
fri1623:00+12n3470100 0.3 1017372
02:00+13n456898 0.4 1016730
05:00+12n446615 0.0 1015418
08:00+11n32660 0.0 1016196
11:00+12sse225769 0.0 1017575
14:00+13sse436394 0.1 1017870
17:00+10ene4580100 0.8 1015411
20:00+10ene447781 5.2 1017407
17 april, sat
sat1723:00+10ne01720 0.1 1018281
02:00+10ssw11700 0.1 1018471
05:00+10n11724 0.2 1017337
08:00+10n32643 0.3 1017314
11:00+11sw124720 0.1 1017934
14:00+12ese224499 0.4 1017756
17:00+13n794856 0.4 10171770
20:00+12ne44500 0.4 1018649
18 april, sun
sun1823:00+12ese11520 0.0 1021290
02:00+12wsw44630 0.0 1021401
05:00+11wsw56600 0.0 1020312
08:00+12w44530 0.0 1019237
11:00+14ese33440 0.0 1020705
14:00+13ese55570 0.0 1020547
17:00+13ese54600 0.0 1019413
20:00+13s22640 0.0 1020371